Regional Weather Roundup
Issued by NWS

Home | Current Version | Previous Version | Text Only | Print | Product List | Glossary On
Versions: 1 2 3 4 5 6 7 8 9 10 11 12 13 14 15 16 17 18 19 20 21 22 23 24 25 26 27
000
ASCA42 TJSJ 250410
RWRPR
PUERTO RICO/U.S. VIRGIN ISLANDS HOURLY WEATHER ROUNDUP
NATIONAL WEATHER SERVICE SAN JUAN PR
1200 AM AST SUN JUN 25 2017

PRZ001>002-007>008-010-250500-
PUERTO RICO

CITY           SKY/WX    TMP DP  RH WIND       PRES   REMARKS
SAN JUAN LMM   CLEAR     81  73  78 E5        30.09S
PONCE          PTCLDY    79  73  83 NE6       30.10S
CEIBA          PTCLDY    81  75  83 E6        30.11S
$$

VIZ001>002-250500-
U.S. VIRGIN ISLANDS

CITY           SKY/WX    TMP DP  RH WIND       PRES   REMARKS
CHARLOTTE AMA  PTCLDY    84  75  74 E8        30.08S HX  92
CHRISTIANSTED  MOCLDY    81  75  83 NE7       30.09R
$$

HOURLY WEATHER ROUNDUP FOR THE NEWS MEDIA

CITY           SKY/WX    TMP DP  RH WIND       PRES   REMARKS
ORLANDO        LGT RAIN  78  78 100 SW5       30.11S
NEW YORK       PTCLDY    76  65  68 SW6       29.90R
NEWARK         PTCLDY    77  59  53 W13       29.90R
CHICAGO        LGT RAIN  63  47  55 W10       30.06R
HARTFORD       CLEAR     63  58  83 CALM      29.86R
BOSTON         PTCLDY    76  53  44 W14       29.84R
DALLAS         PTCLDY    75  64  68 NE5       30.15R
PHILADELPHIA   CLOUDY    77  60  55 SW8       29.94R
LOS ANGELES    PTCLDY    65  62  90 SW9       29.86R
WASHINGTON DC  PTCLDY    68  62  81 CALM      29.98R



USA.gov is the U.S. government's official web portal to all federal, state and local government web resources and services.